STARLINK-11414, 61948

Orbit data source: Space-Track

STARLINK-11414, 61948 is a payload satellite owned by SpaceX/Seattle (US) in LEO that was launched on Thu, 14 Nov 2024 UTC via an FALCON 9 launch vehicle from the Air Force Western Test Range (AFWTR). Payload-class satellites include a variety of spacecraft equipped with specific instruments for various scientific and technological missions. These include communications satellites like Starlink; space stations such as the ISS; scientific satellites like the Hubble; Earth observation satellites from companies like Planet Labs, Umbra, and HawkEye 360; GPS; miniature CubeSats for education and research; and military/defense satellites.

Loading next visibility...
Identifier
61948, 2024-209K
Orbit
LEO
Country
Flag of USUS
Related business
Manufacturer
SpaceX/Seattle
Mission
Operational Commercial Communications
Bus & Motor
STARLINK V2MD, Unknown motor
Mass
960 kg wet, ~910 kg dry
Launch date (UTC)
2024-11-14 (2 years ago)
Launch vehicle
FALCON 9
Launch site
Air Force Western Test Range (AFWTR)
Object type
Payload
Rocket body
Debris
Shape & HBR
Box + 2 Pan, 18.1 m
Radar Cross Section
36.964 m², Large (>1 m²)

Expand to show TLE details & history
Last TLE update: 11 hours ago

TLE from 11 hours ago
0 STARLINK-11414
1 61948U 24209K   26171.41028191  .00125513  00000-0  10208-2 0  9998
2 61948  53.1591 224.7156 0000548  90.0374 270.0707 15.69814111 92855
Epoch: 2026-06-20T09:50Z
TLE epoch observation values (Epoch: 2026-06-20T09:50:48.357Z)
Latitude
0.00002°
Longitude
168.38882°
Altitude
360.343 km
Speed
7.694 km/s
True Right ascension
14h 58m 51s
True Declination
0° 00' 00"
Sunlit
Object was in full shadow at epoch
Visualization orbit readout
Latitude
Unknown
Longitude
Unknown
Altitude
Unknown
Speed
Unknown
Apparent Right ascension
Unknown
Apparent Declination
Unknown
Sunlit
N/A
Visualization observer readout
Local Sidereal Time
07:17:53
Azimuth
Unknown
Elevation
Unknown
Doppler factor
Unknown
Orbital elements
Apogee altitude
360.059 km
Perigee altitude
359.32 km
Semi-major axis
6,737.827 km
Eccentricity
0.00005
Inclination
53.1591°
RAAN
224.7156°
Arg. of periapsis
90.0374°
True anomaly
270.06442°
Mean anomaly
270.0707°
Eccentric anomaly
270.06756°
Mean motion
3.92431 °/min
Orbital period
91.74 mins
BSTAR
0.0010208
Loading maneuver chart data...
Computing Atmospheric mass density...
Loading historical data...
Loading historical data...
Loading historical data...
Loading historical data...
Loading historical data...
Loading historical data...
Loading historical data...

Documentation

Showing up to 5 results
|